Tracking 20369 objects as of 17-Feb-2020
HD Live streaming from Space Station
objects crossing your sky now

METEOR 2-8

Track METEOR 2-8 now!
10-day predictions
METEOR 2-8 is classified as:


NORAD ID: 13113
Int'l Code: 1982-025A
Perigee: 939.9 km
Apogee: 964.1 km
Inclination: 82.5 °
Period: 103.9 minutes
Semi major axis: 7322 km
RCS: 4.8522 m2 (large)
Launch date: March 25, 1982
Source: Commonwealth of Independent States (former USSR) (CIS)
Launch site: PLESETSK MISSILE AND SPACE COMPLEX (PKMTR)
aabbcc
Your satellite tracking list
Your tracking list is empty




NASA's NSSDC Master Catalog

Two Line Element Set (TLE):
1 13113U 82025A   20047.89162103 +.00000029 +00000-0 +12191-4 0  9998
2 13113 082.5411 140.7588 0016511 258.6918 239.0730 13.85390304915452
Source of the keplerian elements: AFSPC